WB4FAY-4 Weather Reports


Display with metric or nautical units.
time (UTC)temp
F
wind
direction
speed
MPH
gust
MPH
rain 1hr
in
rain 24hr
in
rain mn
in
humidity
%
barometer
mb
20260506135017 71 199 2.0 7.0 0.00 0.00 0.00 85 1015.2
20260506134517 71 268 7.0 6.0 0.00 0.00 0.00 86 1015.3
20260506134017 71 188 3.0 11.0 0.00 0.00 0.00 86 1015.3
20260506133517 70 195 3.0 9.0 0.00 0.00 0.00 86 1015.3
20260506133017 70 257 1.0 6.0 0.00 0.00 0.00 87 1015.3
20260506132517 70 193 2.0 6.0 0.00 0.00 0.00 87 1015.4
20260506132017 70 188 0.0 4.0 0.00 0.00 0.00 87 1015.4
20260506131517 70 196 1.0 7.0 0.00 0.00 0.00 87 1015.4
20260506131017 69 215 0.0 7.0 0.00 0.00 0.00 88 1015.5
20260506130517 69 127 1.0 5.0 0.00 0.00 0.00 88 1015.5
20260506130017 69 192 3.0 4.0 0.00 0.00 0.00 88 1015.5
20260506125518 69 202 0.0 6.0 0.00 0.00 0.00 88 1015.3
20260506125017 69 217 2.0 5.0 0.00 0.00 0.00 89 1015.3
20260506124516 69 184 2.0 8.0 0.00 0.00 0.00 89 1015.4
20260506124017 69 205 3.0 5.0 0.00 0.00 0.00 88 1015.3
20260506123517 69 302 4.0 6.0 0.00 0.00 0.00 89 1015.4
20260506123017 69 215 3.0 7.0 0.00 0.00 0.00 89 1015.2
20260506122517 69 215 3.0 7.0 0.00 0.00 0.00 88 1015.3
20260506122017 69 181 3.0 8.0 0.00 0.00 0.00 89 1015.2
20260506121517 68 195 3.0 8.0 0.00 0.00 0.00 88 1015.0
20260506121017 68 206 2.0 4.0 0.00 0.00 0.00 88 1014.9
20260506120517 68 196 4.0 7.0 0.00 0.00 0.00 88 1014.7
20260506120018 68 186 2.0 5.0 0.00 0.00 0.00 88 1014.7
20260506115517 68 226 2.0 5.0 0.00 0.00 0.00 88 1014.5
20260506115017 68 217 2.0 5.0 0.00 0.00 0.00 88 1014.4
20260506114517 68 199 3.0 6.0 0.00 0.00 0.00 87 1014.5
20260506114018 68 223 0.0 5.0 0.00 0.00 0.00 87 1014.4
20260506113517 68 219 2.0 4.0 0.00 0.00 0.00 87 1014.5
20260506113017 68 240 2.0 4.0 0.00 0.00 0.00 87 1014.2
20260506112517 68 240 1.0 5.0 0.00 0.00 0.00 87 1014.0
20260506112017 68 203 2.0 5.0 0.00 0.00 0.00 87 1014.0
20260506111518 68 195 3.0 5.0 0.00 0.00 0.00 87 1014.0
20260506111017 68 217 2.0 3.0 0.00 0.00 0.00 86 1013.8
20260506110517 68 196 1.0 6.0 0.00 0.00 0.00 86 1013.8
20260506110017 68 193 3.0 5.0 0.00 0.00 0.00 86 1013.8
20260506105517 68 198 2.0 5.0 0.00 0.00 0.00 86 1013.9
20260506105017 68 191 2.0 4.0 0.00 0.00 0.00 86 1013.8
20260506104517 68 196 3.0 6.0 0.00 0.00 0.00 86 1013.8
20260506104017 68 217 2.0 4.0 0.00 0.00 0.00 86 1013.8
20260506103517 68 220 3.0 6.0 0.00 0.00 0.00 86 1013.7
20260506103017 68 222 2.0 5.0 0.00 0.00 0.00 85 1013.6
20260506102517 68 246 3.0 5.0 0.00 0.00 0.00 85 1013.5
20260506102017 68 195 2.0 5.0 0.00 0.00 0.00 85 1013.4
20260506101517 68 184 2.0 5.0 0.00 0.00 0.00 85 1013.4
20260506101017 68 188 1.0 5.0 0.00 0.00 0.00 85 1013.4
20260506100517 68 198 4.0 5.0 0.00 0.00 0.00 85 1013.2
20260506100017 68 236 2.0 4.0 0.00 0.00 0.00 84 1013.1
20260506095517 68 192 2.0 5.0 0.00 0.00 0.00 84 1013.2
20260506095017 68 227 3.0 4.0 0.00 0.00 0.00 84 1013.1
20260506094517 68 199 1.0 5.0 0.00 0.00 0.00 84 1013.0
20260506094018 68 191 3.0 4.0 0.00 0.00 0.00 84 1013.1
20260506093517 69 182 1.0 6.0 0.00 0.00 0.00 84 1012.9
20260506093017 69 198 3.0 4.0 0.00 0.00 0.00 83 1012.9
20260506092517 69 193 0.0 3.0 0.00 0.00 0.00 83 1012.8
20260506092018 68 195 2.0 4.0 0.00 0.00 0.00 83 1012.8
20260506091518 69 230 1.0 3.0 0.00 0.00 0.00 83 1012.8
20260506091017 69 193 0.0 6.0 0.00 0.00 0.00 83 1012.8
20260506090518 69 224 3.0 4.0 0.00 0.00 0.00 83 1012.8
20260506090017 69 236 1.0 6.0 0.00 0.00 0.00 82 1012.8
20260506085517 69 253 5.0 7.0 0.00 0.00 0.00 82 1012.5
20260506085017 69 203 3.0 5.0 0.00 0.00 0.00 82 1012.5
20260506084517 69 205 2.0 6.0 0.00 0.00 0.00 82 1012.5
20260506084017 69 254 3.0 7.0 0.00 0.00 0.00 81 1012.5
20260506083517 69 219 2.0 5.0 0.00 0.00 0.00 81 1012.5
20260506083017 69 246 3.0 5.0 0.00 0.00 0.00 81 1012.5
20260506082517 69 217 2.0 6.0 0.00 0.00 0.00 81 1012.5
20260506082018 69 199 4.0 7.0 0.00 0.00 0.00 81 1012.5
20260506081517 69 191 3.0 5.0 0.00 0.00 0.00 80 1012.6
20260506081018 69 241 2.0 6.0 0.00 0.00 0.00 80 1012.6
20260506080517 69 229 3.0 5.0 0.00 0.00 0.00 80 1012.6
20260506073517 70 205 0.0 7.0 0.00 0.00 0.00 77 1012.7
20260506073017 70 230 4.0 5.0 0.00 0.00 0.00 77 1012.6
20260506072517 70 208 3.0 5.0 0.00 0.00 0.00 77 1012.6
20260506072017 70 199 4.0 4.0 0.00 0.00 0.00 77 1012.6
20260506071518 70 234 3.0 4.0 0.00 0.00 0.00 76 1012.7
20260506071017 70 258 2.0 6.0 0.00 0.00 0.00 76 1012.6
20260506070518 70 188 5.0 5.0 0.00 0.00 0.00 76 1012.8
20260506062517 70 188 2.0 6.0 0.00 0.00 0.00 74 1013.0
20260506062017 70 212 3.0 6.0 0.00 0.00 0.00 74 1013.1
20260506061517 71 202 4.0 3.0 0.00 0.00 0.00 73 1013.2
20260506061017 71 272 2.0 6.0 0.00 0.00 0.00 73 1013.3
20260506060517 71 203 2.0 6.0 0.00 0.00 0.00 73 1013.3
20260506051017 71 203 3.0 7.0 0.00 0.00 0.00 71 1013.3
20260506050517 72 200 3.0 7.0 0.00 0.00 0.00 71 1013.2
20260506045017 72 200 2.0 7.0 0.00 0.00 0.00 71 1013.3
20260506044517 72 200 3.0 6.0 0.00 0.00 0.00 70 1013.2
20260506044017 72 184 2.0 8.0 0.00 0.00 0.00 70 1013.1
20260506043517 72 199 7.0 6.0 0.00 0.00 0.00 70 1013.1
20260506043017 72 229 4.0 8.0 0.00 0.00 0.00 70 1013.0
20260506042517 72 264 3.0 5.0 0.00 0.00 0.00 69 1012.9
20260506042017 72 189 2.0 10.0 0.00 0.00 0.00 69 1013.0
20260506041517 72 195 3.0 8.0 0.00 0.00 0.00 69 1013.1
20260506041017 72 178 3.0 8.0 0.00 0.00 0.00 69 1013.2
20260506040517 72 199 2.0 7.0 0.00 0.00 0.00 69 1013.1
20260506040017 72 224 1.0 7.0 0.00 0.00 0.00 69 1013.1
20260506035518 73 189 3.0 10.0 0.00 0.00 0.00 68 1013.2
20260506035017 72 186 2.0 7.0 0.00 0.00 0.00 68 1013.2
20260506034517 73 199 2.0 9.0 0.00 0.00 0.00 68 1013.1
20260506034017 73 217 2.0 5.0 0.00 0.00 0.00 67 1013.1
20260506033517 73 191 2.0 5.0 0.00 0.00 0.00 67 1013.0
20260506033017 72 258 1.0 5.0 0.00 0.00 0.00 68 1013.1
20260506032517 72 229 3.0 4.0 0.00 0.00 0.00 68 1013.4
20260506032017 72 251 2.0 6.0 0.00 0.00 0.00 68 1013.3
20260506031523 71 0 0.0 0.0 0.00 0.00 0.00 68 1013.2
20260506031017 71 0 0.0 0.0 0.00 0.00 0.00 69 1012.9
20260506030517 71 0 0.0 0.0 0.00 0.00 0.00 68 1012.8
20260506030017 71 0 0.0 0.0 0.00 0.00 0.00 68 1012.7
20260506025517 71 0 0.0 0.0 0.00 0.00 0.00 67 1012.6
20260506025017 71 0 0.0 0.0 0.00 0.00 0.00 67 1012.6
20260506024517 71 0 0.0 0.0 0.00 0.00 0.00 66 1012.7
20260506024018 71 0 0.0 0.0 0.00 0.00 0.00 66 1012.7
20260506023517 71 0 0.0 0.0 0.00 0.00 0.00 66 1012.7
20260506023017 71 0 0.0 0.0 0.00 0.00 0.00 65 1012.7
20260506022517 72 0 0.0 0.0 0.00 0.00 0.00 65 1012.6
20260506022017 72 0 0.0 0.0 0.00 0.00 0.00 65 1012.6
20260506021517 72 0 0.0 0.0 0.00 0.00 0.00 65 1012.5
20260506021018 72 0 0.0 0.0 0.00 0.00 0.00 65 1012.5
20260506020517 72 0 0.0 0.0 0.00 0.00 0.00 65 1012.6
20260506020017 72 0 0.0 0.0 0.00 0.00 0.00 65 1012.5
20260506015517 72 0 0.0 0.0 0.00 0.00 0.00 65 1012.6
20260506015018 72 0 0.0 0.0 0.00 0.00 0.00 64 1012.5
20260506014517 72 0 0.0 0.0 0.00 0.00 0.00 64 1012.3
20260506014017 72 0 0.0 0.0 0.00 0.00 0.00 64 1012.4
20260506013517 72 0 0.0 0.0 0.00 0.00 0.00 64 1012.5
20260506013017 72 0 0.0 0.0 0.00 0.00 0.00 64 1012.5
20260506012517 72 0 0.0 0.0 0.00 0.00 0.00 65 1012.6
20260506012018 72 0 0.0 0.0 0.00 0.00 0.00 65 1012.8
20260506011518 72 0 0.0 0.0 0.00 0.00 0.00 65 1012.8
20260506011018 73 0 0.0 0.0 0.00 0.00 0.00 64 1012.6
20260506010518 73 0 0.0 0.0 0.00 0.00 0.00 63 1012.6
20260506010018 73 0 0.0 0.0 0.00 0.00 0.00 62 1012.5
20260506005518 73 0 0.0 0.0 0.00 0.00 0.00 61 1012.5
20260506005018 74 0 0.0 0.0 0.00 0.00 0.00 60 1012.6
20260506004518 74 0 0.0 0.0 0.00 0.00 0.00 60 1012.4
20260506004018 75 0 0.0 0.0 0.00 0.00 0.00 59 1012.3
20260506003518 75 0 0.0 0.0 0.00 0.00 0.00 58 1012.2
20260506003017 75 0 0.0 0.0 0.00 0.00 0.00 57 1012.2
20260506002518 75 0 0.0 0.0 0.00 0.00 0.00 57 1012.3
20260506002018 76 0 0.0 0.0 0.00 0.00 0.00 57 1012.4
20260506001518 76 0 0.0 0.0 0.00 0.00 0.00 57 1012.5
20260506001018 76 0 0.0 0.0 0.00 0.00 0.00 56 1012.6
20260506000518 76 0 0.0 0.0 0.00 0.00 0.00 56 1012.8
20260506000017 76 0 0.0 0.0 0.00 0.00 0.00 56 1012.8
20260505235518 76 0 0.0 0.0 0.00 0.00 0.00 56 1012.7
20260505235017 76 0 0.0 0.0 0.00 0.00 0.00 55 1012.6
20260505234517 76 0 0.0 0.0 0.00 0.00 0.00 55 1012.5
20260505234017 76 0 0.0 0.0 0.00 0.00 0.00 55 1012.6
20260505233517 76 0 0.0 0.0 0.00 0.00 0.00 54 1012.7
20260505233017 76 0 0.0 0.0 0.00 0.00 0.00 54 1012.8
20260505232517 77 0 0.0 0.0 0.00 0.00 0.00 54 1012.9
20260505232018 77 0 0.0 0.0 0.00 0.00 0.00 54 1013.0
20260505231518 77 0 0.0 0.0 0.00 0.00 0.00 54 1012.9
20260505231018 77 182 0.0 4.0 0.00 0.00 0.00 53 1013.0
20260505230518 77 248 0.0 4.0 0.00 0.00 0.00 54 1012.9
20260505230017 77 196 0.0 4.0 0.00 0.00 0.00 54 1013.0
20260505225518 77 191 0.0 4.0 0.00 0.00 0.00 54 1013.0
20260505225017 77 186 2.0 3.0 0.00 0.00 0.00 53 1013.1
20260505224517 77 179 0.0 3.0 0.00 0.00 0.00 53 1013.2
20260505224017 77 227 0.0 3.0 0.00 0.00 0.00 54 1013.1
20260505223517 77 205 0.0 6.0 0.00 0.00 0.00 53 1013.1
20260505223018 77 260 4.0 3.0 0.00 0.00 0.00 53 1013.1
20260505222517 77 192 3.0 4.0 0.00 0.00 0.00 53 1013.1
20260505222017 77 230 0.0 4.0 0.00 0.00 0.00 53 1013.1
20260505221517 77 199 1.0 8.0 0.00 0.00 0.00 53 1013.1
20260505221017 77 193 0.0 8.0 0.00 0.00 0.00 53 1013.1
20260505220517 77 258 1.0 5.0 0.00 0.00 0.00 53 1013.1
20260505220017 77 263 1.0 5.0 0.00 0.00 0.00 52 1013.1
20260505215517 77 198 0.0 8.0 0.00 0.00 0.00 52 1013.1
20260505215017 77 178 4.0 10.0 0.00 0.00 0.00 51 1013.2
20260505214517 77 232 2.0 5.0 0.00 0.00 0.00 52 1013.2
20260505214017 77 215 4.0 3.0 0.00 0.00 0.00 54 1013.2
20260505213517 77 200 0.0 5.0 0.00 0.00 0.00 53 1013.2
20260505213018 77 203 0.0 7.0 0.00 0.00 0.00 52 1013.2
20260505212517 78 229 0.0 6.0 0.00 0.00 0.00 51 1013.2
20260505212018 78 251 4.0 8.0 0.00 0.00 0.00 51 1013.1
20260505211517 78 205 4.0 6.0 0.00 0.00 0.00 52 1013.0
20260505211017 78 308 0.0 6.0 0.00 0.00 0.00 50 1013.1
20260505210518 78 196 1.0 9.0 0.00 0.00 0.00 52 1013.1
20260505210017 78 233 3.0 8.0 0.00 0.00 0.00 51 1013.1
20260505205517 78 210 2.0 5.0 0.00 0.00 0.00 51 1013.1
20260505205016 78 188 3.0 9.0 0.00 0.00 0.00 50 1013.3
20260505204517 78 224 7.0 10.0 0.00 0.00 0.00 51 1013.3
20260505204018 77 222 5.0 9.0 0.00 0.00 0.00 51 1013.1
20260505203517 77 206 8.0 7.0 0.00 0.00 0.00 50 1013.3
20260505203017 77 261 5.0 6.0 0.00 0.00 0.00 55 1013.3
20260505202517 77 203 3.0 5.0 0.00 0.00 0.00 54 1013.3
20260505202017 77 234 0.0 4.0 0.00 0.00 0.00 53 1013.3
20260505201517 77 0 0.0 0.0 0.00 0.00 0.00 54 1013.6
20260505201017 77 196 0.0 6.0 0.00 0.00 0.00 53 1013.7
20260505200517 76 196 4.0 5.0 0.00 0.00 0.00 56 1013.8
20260505200017 76 223 0.0 6.0 0.00 0.00 0.00 55 1014.0
20260505195518 76 239 4.0 6.0 0.00 0.00 0.00 53 1014.0
20260505195017 76 268 0.0 7.0 0.00 0.00 0.00 55 1014.1
20260505194517 76 234 0.0 9.0 0.00 0.00 0.00 53 1014.2
20260505194018 76 258 0.0 3.0 0.00 0.00 0.00 57 1014.1
20260505193517 76 257 1.0 3.0 0.00 0.00 0.00 53 1014.2
20260505193017 77 265 1.0 5.0 0.00 0.00 0.00 54 1014.4
20260505192517 76 62 3.0 4.0 0.00 0.00 0.00 56 1014.2
20260505192017 76 257 0.0 4.0 0.00 0.00 0.00 56 1014.2
20260505191517 76 241 2.0 4.0 0.00 0.00 0.00 55 1014.3
20260505191018 76 274 2.0 4.0 0.00 0.00 0.00 57 1014.4
20260505190517 75 232 4.0 5.0 0.00 0.00 0.00 55 1014.5
20260505190017 75 325 0.0 5.0 0.00 0.00 0.00 53 1014.6
20260505185517 75 296 0.0 4.0 0.00 0.00 0.00 55 1014.6
20260505185017 75 248 0.0 6.0 0.00 0.00 0.00 55 1014.7
20260505184517 75 234 0.0 4.0 0.00 0.00 0.00 57 1014.8
20260505184017 75 185 0.0 4.0 0.00 0.00 0.00 55 1014.8
20260505183517 75 288 2.0 5.0 0.00 0.00 0.00 57 1014.8
20260505183018 75 41 1.0 6.0 0.00 0.00 0.00 59 1014.9
20260505182517 74 329 0.0 3.0 0.00 0.00 0.00 59 1015.0
20260505182017 74 219 0.0 10.0 0.00 0.00 0.00 58 1015.0
20260505181517 74 198 0.0 9.0 0.00 0.00 0.00 56 1015.0
20260505181017 74 213 5.0 7.0 0.00 0.00 0.00 53 1015.1
20260505180517 74 209 4.0 6.0 0.00 0.00 0.00 58 1015.2
20260505180017 74 250 2.0 5.0 0.00 0.00 0.00 56 1015.2
20260505175517 74 217 0.0 6.0 0.00 0.00 0.00 57 1015.2
20260505175019 74 182 0.0 7.0 0.00 0.00 0.00 58 1015.3
20260505174519 74 206 2.0 5.0 0.00 0.00 0.00 59 1015.5
20260505174019 73 278 4.0 5.0 0.00 0.00 0.00 57 1015.5
20260505173519 73 226 2.0 6.0 0.00 0.00 0.00 58 1015.6
20260505173019 73 232 0.0 5.0 0.00 0.00 0.00 56 1015.6
20260505172518 74 213 0.0 6.0 0.00 0.00 0.00 57 1015.6
20260505172019 74 35 2.0 8.0 0.00 0.00 0.00 57 1015.6
20260505171519 73 322 0.0 3.0 0.00 0.00 0.00 60 1015.6
20260505171018 73 0 0.0 0.0 0.00 0.00 0.00 59 1015.8
20260505170519 73 217 0.0 7.0 0.00 0.00 0.00 59 1015.8
20260505170018 73 278 2.0 3.0 0.00 0.00 0.00 60 1015.9
20260505165519 73 219 0.0 5.0 0.00 0.00 0.00 57 1015.9
20260505165018 73 237 0.0 5.0 0.00 0.00 0.00 59 1016.0
20260505164518 73 195 2.0 4.0 0.00 0.00 0.00 59 1015.9
20260505164018 73 202 2.0 5.0 0.00 0.00 0.00 59 1015.9
20260505163518 72 230 2.0 7.0 0.00 0.00 0.00 58 1015.9
20260505163019 72 189 3.0 8.0 0.00 0.00 0.00 60 1015.9
20260505162518 71 205 4.0 7.0 0.00 0.00 0.00 59 1016.0
20260505162018 71 0 0.0 0.0 0.00 0.00 0.00 63 1015.9
20260505161518 71 196 0.0 7.0 0.00 0.00 0.00 62 1016.0
20260505161018 71 304 0.0 7.0 0.00 0.00 0.00 62 1016.0
20260505160518 71 195 1.0 7.0 0.00 0.00 0.00 61 1015.9
20260505153017 69 182 2.0 7.0 0.00 0.00 0.00 63 1016.1
20260505152518 70 233 0.0 6.0 0.00 0.00 0.00 65 1016.3
20260505152017 69 254 3.0 6.0 0.00 0.00 0.00 66 1016.3
20260505151518 69 199 0.0 4.0 0.00 0.00 0.00 65 1016.2
20260505151017 69 250 4.0 4.0 0.00 0.00 0.00 67 1016.2
20260505150517 69 302 3.0 6.0 0.00 0.00 0.00 66 1016.2
20260505140517 65 206 3.0 6.0 0.00 0.00 0.00 73 1016.4